Location: Caltech
(34.1382°N, 118.1253°W)
Time: 04:39:16
(UTC-07:00)

Gurwin Techsat 1B - Visible Passes

Search period start: 18 September 2014 00:00
Search period end: 28 September 2014 00:00
Orbit: 812 x 815 km, 98.5° (Epoch: 18 September)

Date Brightness Start Highest point End Pass type
(mag) Time Alt. Az. Time Alt. Az. Time Alt. Az.
18 Sep 10.0 03:49:26 10° N 03:52:07 31° N 03:52:07 31° N visible
19 Sep 10.5 03:26:52 10° NNE 03:29:05 25° NNE 03:29:05 25° NNE visible
19 Sep 10.5 05:08:38 10° NNW 05:10:18 14° NW 05:10:18 14° NW visible
20 Sep 11.0 03:04:34 10° NNE 03:06:03 18° NE 03:06:03 18° NE visible
20 Sep 10.2 04:44:56 10° NNW 04:47:16 20° NW 04:47:16 20° NW visible
21 Sep 11.5 02:42:40 10° NE 02:43:01 11° NE 02:43:01 11° NE visible
21 Sep 10.1 04:21:45 10° N 04:24:13 25° NNW 04:24:13 25° NNW visible
22 Sep 10.2 03:58:51 10° N 04:01:11 27° N 04:01:11 27° N visible
23 Sep 10.6 03:36:11 10° NNE 03:38:09 23° NNE 03:38:09 23° NNE visible
23 Sep 10.7 05:18:54 10° NW 05:19:22 11° NW 05:19:22 11° NW visible
24 Sep 11.0 03:13:46 10° NNE 03:15:07 18° NE 03:15:07 18° NE visible
24 Sep 10.5 04:54:41 10° NNW 04:56:19 16° NW 04:56:19 16° NW visible
25 Sep 11.5 02:51:39 10° NE 02:52:04 12° NE 02:52:04 12° NE visible
25 Sep 10.3 04:31:20 10° N 04:33:17 20° NNW 04:33:17 20° NNW visible
26 Sep 10.4 04:08:19 10° N 04:10:15 22° N 04:10:15 22° N visible
27 Sep 10.6 03:45:33 10° NNE 03:47:12 21° NNE 03:47:12 21° NNE visible
